• în România
  • Lista ţărilor
  • Pe 7 zile
  • Temperatura apei
  • Hartă satelitară
  • Meteo pe hartă
  • Widget-uri
  • user-avatar
    Intrare

    Meteo pe oră la Batina

    Astăzi, 20 Noiembrie, Luni

    Timp Temperatura Precipitaţii Vânt Presiune Umiditate
    00:00 +7°C° 0 mm 1 m/s 672 mmHg 66%
    01:00 +6°C° 0 mm 1 m/s 672 mmHg 66%
    02:00 +6°C° 0 mm 1 m/s 672 mmHg 65%
    03:00 +6°C° 0 mm 1 m/s 672 mmHg 65%
    04:00 +6°C° 0 mm 1 m/s 672 mmHg 62%
    05:00 +5°C° 0 mm 1 m/s 672 mmHg 60%
    06:00 +5°C° 0 mm 1 m/s 672 mmHg 59%
    07:00 +7°C° 0 mm 1 m/s 673 mmHg 49%
    08:00 +10°C° 0 mm 1 m/s 674 mmHg 40%
    09:00 +11°C° 0 mm 0 m/s 675 mmHg 30%
    10:00 +13°C° 0 mm 1 m/s 675 mmHg 27%
    11:00 +14°C° 0 mm 1 m/s 675 mmHg 23%
    12:00 +15°C° 0 mm 1 m/s 676 mmHg 20%
    13:00 +15°C° 0 mm 1 m/s 675 mmHg 20%
    14:00 +15°C° 0 mm 1 m/s 675 mmHg 20%
    15:00 +15°C° 0 mm 1 m/s 675 mmHg 20%
    16:00 +13°C° 0 mm 1 m/s 674 mmHg 26%
    17:00 +12°C° 0 mm 1 m/s 674 mmHg 31%
    18:00 +9°C° 0 mm 0 m/s 674 mmHg 36%
    19:00 +8°C° 0 mm 0 m/s 674 mmHg 37%
    20:00 +9°C° 0 mm 1 m/s 674 mmHg 37%
    21:00 +9°C° 0 mm 1 m/s 674 mmHg 38%
    22:00 +8°C° 0 mm 1 m/s 674 mmHg 38%
    23:00 +8°C° 0 mm 1 m/s 674 mmHg 39%

    Mâine, 21 Noiembrie, Marţi

    Timp Temperatura Precipitaţii Vânt Presiune Umiditate
    00:00 +8°C° 0 mm 1 m/s 674 mmHg 39%
    01:00 +8°C° 0 mm 1 m/s 673 mmHg 40%
    02:00 +7°C° 0 mm 1 m/s 673 mmHg 41%
    03:00 +7°C° 0 mm 1 m/s 673 mmHg 42%
    04:00 +7°C° 0 mm 1 m/s 673 mmHg 42%
    05:00 +6°C° 0 mm 1 m/s 673 mmHg 42%
    06:00 +6°C° 0 mm 1 m/s 673 mmHg 42%
    07:00 +8°C° 0 mm 1 m/s 674 mmHg 36%
    08:00 +11°C° 0 mm 1 m/s 674 mmHg 31%
    09:00 +13°C° 0 mm 1 m/s 675 mmHg 26%
    10:00 +14°C° 0 mm 1 m/s 675 mmHg 24%
    11:00 +15°C° 0 mm 2 m/s 675 mmHg 22%
    12:00 +16°C° 0 mm 2 m/s 675 mmHg 20%
    13:00 +16°C° 0 mm 2 m/s 675 mmHg 21%
    14:00 +16°C° 0 mm 2 m/s 675 mmHg 21%
    15:00 +16°C° 0 mm 2 m/s 674 mmHg 22%
    16:00 +14°C° 0 mm 2 m/s 674 mmHg 27%
    17:00 +12°C° 0 mm 1 m/s 674 mmHg 32%
    18:00 +10°C° 0 mm 1 m/s 673 mmHg 37%
    19:00 +10°C° 0 mm 1 m/s 673 mmHg 39%
    20:00 +9°C° 0 mm 1 m/s 673 mmHg 40%
    21:00 +8°C° 0 mm 0 m/s 673 mmHg 41%
    22:00 +8°C° 0 mm 1 m/s 673 mmHg 41%
    23:00 +8°C° 0 mm 1 m/s 672 mmHg 41%

    Poimâine, 22 Noiembrie, Miercuri

    Timp Temperatura Precipitaţii Vânt Presiune Umiditate
    00:00 +8°C° 0 mm 1 m/s 672 mmHg 41%
    01:00 +8°C° 0 mm 1 m/s 672 mmHg 42%
    02:00 +7°C° 0 mm 1 m/s 672 mmHg 43%
    03:00 +7°C° 0 mm 1 m/s 671 mmHg 44%
    04:00 +7°C° 0 mm 1 m/s 671 mmHg 44%
    05:00 +7°C° 0 mm 1 m/s 671 mmHg 44%
    06:00 +6°C° 0 mm 1 m/s 671 mmHg 43%
    07:00 +9°C° 0 mm 1 m/s 672 mmHg 37%
    08:00 +11°C° 0 mm 1 m/s 673 mmHg 31%
    09:00 +13°C° 0 mm 1 m/s 674 mmHg 24%
    10:00 +14°C° 0 mm 1 m/s 673 mmHg 22%
    11:00 +15°C° 0 mm 1 m/s 673 mmHg 19%
    12:00 +16°C° 0 mm 2 m/s 673 mmHg 17%
    13:00 +15°C° 0 mm 1 m/s 673 mmHg 17%
    14:00 +15°C° 0 mm 1 m/s 673 mmHg 18%
    15:00 +15°C° 0 mm 1 m/s 673 mmHg 18%
    16:00 +14°C° 0 mm 1 m/s 672 mmHg 22%
    17:00 +13°C° 0 mm 1 m/s 672 mmHg 25%
    18:00 +11°C° 0 mm 1 m/s 672 mmHg 29%
    19:00 +11°C° 0 mm 1 m/s 672 mmHg 30%
    20:00 +10°C° 0 mm 1 m/s 672 mmHg 31%
    21:00 +10°C° 0 mm 1 m/s 672 mmHg 32%
    22:00 +9°C° 0 mm 1 m/s 672 mmHg 33%
    23:00 +9°C° 0 mm 1 m/s 672 mmHg 34%

    23 Noiembrie, Joi

    Timp Temperatura Precipitaţii Vânt Presiune Umiditate
    00:00 +8°C° 0 mm 1 m/s 672 mmHg 35%
    01:00 +8°C° 0 mm 1 m/s 672 mmHg 35%
    02:00 +6°C° 0 mm 0 m/s 671 mmHg 36%
    03:00 +6°C° 0 mm 0 m/s 671 mmHg 37%
    04:00 +6°C° 0 mm 0 m/s 671 mmHg 37%
    05:00 +6°C° 0 mm 0 m/s 671 mmHg 37%
    06:00 +5°C° 0 mm 0 m/s 671 mmHg 37%
    07:00 +8°C° 0 mm 0 m/s 672 mmHg 32%
    08:00 +10°C° 0 mm 0 m/s 673 mmHg 27%
    09:00 +12°C° 0 mm 0 m/s 674 mmHg 22%
    10:00 +14°C° 0 mm 1 m/s 675 mmHg 21%
    11:00 +15°C° 0 mm 1 m/s 675 mmHg 20%
    12:00 +16°C° 0 mm 1 m/s 675 mmHg 19%
    13:00 +16°C° 0 mm 1 m/s 675 mmHg 19%
    14:00 +16°C° 0 mm 2 m/s 675 mmHg 20%
    15:00 +16°C° 0 mm 2 m/s 674 mmHg 20%
    16:00 +15°C° 0 mm 2 m/s 674 mmHg 24%
    17:00 +13°C° 0 mm 2 m/s 674 mmHg 28%
    18:00 +12°C° 0 mm 1 m/s 674 mmHg 31%
    19:00 +11°C° 0 mm 1 m/s 674 mmHg 34%
    20:00 +10°C° 0 mm 1 m/s 674 mmHg 36%
    21:00 +10°C° 0 mm 1 m/s 674 mmHg 38%
    22:00 +9°C° 0 mm 1 m/s 674 mmHg 40%
    23:00 +9°C° 0 mm 1 m/s 674 mmHg 42%

    24 Noiembrie, Vineri

    Timp Temperatura Precipitaţii Vânt Presiune Umiditate
    00:00 +7°C° 0 mm 0 m/s 674 mmHg 44%
    01:00 +7°C° 0 mm 0 m/s 673 mmHg 44%
    02:00 +7°C° 0 mm 0 m/s 673 mmHg 44%
    03:00 +7°C° 0 mm 0 m/s 673 mmHg 45%
    04:00 +6°C° 0 mm 0 m/s 673 mmHg 45%
    05:00 +6°C° 0 mm 0 m/s 673 mmHg 45%
    06:00 +6°C° 0 mm 0 m/s 673 mmHg 44%
    07:00 +8°C° 0 mm 0 m/s 674 mmHg 39%
    08:00 +10°C° 0 mm 0 m/s 675 mmHg 33%
    09:00 +13°C° 0 mm 0 m/s 676 mmHg 27%
    10:00 +14°C° 0 mm 0 m/s 676 mmHg 26%
    11:00 +15°C° 0 mm 1 m/s 676 mmHg 25%
    12:00 +16°C° 0 mm 1 m/s 676 mmHg 24%
    13:00 +16°C° 0 mm 1 m/s 675 mmHg 24%
    14:00 +16°C° 0 mm 1 m/s 675 mmHg 24%
    15:00 +16°C° 0 mm 1 m/s 675 mmHg 25%
    16:00 +15°C° 0 mm 1 m/s 675 mmHg 30%
    17:00 +13°C° 0 mm 1 m/s 675 mmHg 34%
    18:00 +12°C° 0 mm 1 m/s 674 mmHg 39%
    19:00 +11°C° 0 mm 1 m/s 675 mmHg 40%
    20:00 +11°C° 0 mm 1 m/s 675 mmHg 41%
    21:00 +11°C° 0 mm 1 m/s 675 mmHg 43%
    22:00 +10°C° 0 mm 1 m/s 675 mmHg 44%
    23:00 +9°C° 0 mm 2 m/s 675 mmHg 46%

    25 Noiembrie, Sâmbătă

    Timp Temperatura Precipitaţii Vânt Presiune Umiditate
    00:00 +9°C° 0 mm 2 m/s 674 mmHg 47%
    01:00 +8°C° 0 mm 2 m/s 674 mmHg 49%
    02:00 +8°C° 0 mm 2 m/s 674 mmHg 50%
    03:00 +8°C° 0 mm 2 m/s 674 mmHg 52%
    04:00 +7°C° 0 mm 2 m/s 674 mmHg 54%
    05:00 +7°C° 0 mm 2 m/s 674 mmHg 56%
    06:00 +7°C° 0 mm 2 m/s 674 mmHg 58%
    07:00 +9°C° 0 mm 2 m/s 675 mmHg 55%
    08:00 +10°C° 0 mm 2 m/s 675 mmHg 51%
    09:00 +13°C° 0 mm 2 m/s 676 mmHg 48%
    10:00 +13°C° 0 mm 3 m/s 676 mmHg 47%
    11:00 +14°C° 0 mm 3 m/s 676 mmHg 46%
    12:00 +16°C° 0 mm 3 m/s 676 mmHg 45%
    13:00 +16°C° 0 mm 3 m/s 675 mmHg 46%
    14:00 +16°C° 0 mm 3 m/s 675 mmHg 47%
    15:00 +14°C° 0 mm 3 m/s 675 mmHg 48%
    16:00 +14°C° 0 mm 2 m/s 675 mmHg 55%
    17:00 +13°C° 0 mm 2 m/s 675 mmHg 62%
    18:00 +12°C° 0 mm 2 m/s 675 mmHg 68%
    19:00 +10°C° 0 mm 2 m/s 675 mmHg 71%
    20:00 +10°C° 0 mm 2 m/s 675 mmHg 74%
    21:00 +9°C° 0 mm 2 m/s 675 mmHg 76%
    22:00 +9°C° 0 mm 2 m/s 675 mmHg 78%
    23:00 +9°C° 0 mm 2 m/s 675 mmHg 80%
    Arată mai mult